Weather History for KAFK - July, 2013

Change the Weather History Date:

Friday, July 26, 2013

  Actual Average (KOMA) Record (KOMA)
Temperature  
Mean Temperature 68 °F 77 °F  
Max Temperature 78 °F 87 °F 109 °F (1936)
Min Temperature 58 °F 66 °F 52 °F (2004)
Degree Days  
Heating Degree Days 0 0  
Month to date heating degree days 0  
Since 1 June heating degree days 17  
Since 1 July heating degree days 0  
Cooling Degree Days 4 12  
Month to date cooling degree days 308  
Year to date cooling degree days 620  
Since 1 June cooling degree days 538  
Growing Degree Days 18 (Base 50)    
Moisture  
Dew Point 60 °F    
Average Humidity 73    
Maximum Humidity 100    
Minimum Humidity 40    
Precipitation  
Precipitation 0.00 in 0.12 in 1.90 in (1966)
Month to date precipitation 3.20  
Year to date precipitation 18.66  
Snow  
Snow 0.00 in 0.00 in - ()
Month to date snowfall 0.0  
Since 1 July snowfall 0.0  
Snow Depth -    
Sea Level Pressure  
Sea Level Pressure 30.06 in    
Wind  
Wind Speed 6 mph (NNW)    
Max Wind Speed 15 mph    
Max Gust Speed 23 mph    
Visibility 9 miles    
Events Fog    
T = Trace of Precipitation, MM = Missing Value Source: NWS Daily Summary

Daily Weather History Graph

Daily Weather History Graph

Search for Another Location

Airport or City:

Trip Planner

Search our weather history database for the weather conditions in past years. The results will help you decide how hot, cold, wet, or windy it might be!

Date:

Astronomy

Jul. 26, 2013 Rise Set
Actual Time 6:15 AM CDT 8:44 PM CDT
Civil Twilight 5:43 AM CDT 9:15 PM CDT
Nautical Twilight 5:04 AM CDT 9:54 PM CDT
Astronomical Twilight 4:21 AM CDT 10:37 PM CDT
Moon 10:57 PM CDT (7/26) 10:54 AM CDT (7/26)
Length of Visible Light 15h 31m
Length of Day
14h 29m
Waning Gibbous, 80% of the Moon is Illuminated
Jul 26
Waning Gibbous
Jul 29
Last Quarter
Aug 6
New
Aug 14
First Quarter
Aug 20
Full

Hourly Weather History & Observations

Time (CDT) Temp. Dew Point Humidity Pressure Visibility Wind Dir Wind Speed Gust Speed Precip Events Conditions
12:15 AM 68.2 °F 67.6 °F 98% 30.02 in 10.0 mi SSW 4.6 mph - N/A   Clear
12:35 AM 68.4 °F 68.0 °F 99% 30.02 in 10.0 mi SW 4.6 mph - N/A   Scattered Clouds
12:55 AM 68.2 °F 67.8 °F 99% 30.01 in 10.0 mi SSW 4.6 mph - N/A   Scattered Clouds
1:15 AM 67.6 °F 67.3 °F 99% 30.02 in 10.0 mi Calm Calm - N/A   Scattered Clouds
1:35 AM 67.3 °F 67.1 °F 99% 30.01 in 10.0 mi Calm Calm - N/A   Scattered Clouds
1:55 AM 66.9 °F 66.7 °F 99% 30.01 in 10.0 mi SSW 4.6 mph - N/A   Scattered Clouds
2:15 AM 66.9 °F 66.9 °F 100% 30.00 in 7.0 mi SW 3.5 mph - N/A   Scattered Clouds
2:35 AM 67.5 °F 67.5 °F 100% 30.00 in 10.0 mi SW 5.8 mph - N/A   Scattered Clouds
2:55 AM 66.7 °F 66.7 °F 100% 30.00 in 7.0 mi SW 4.6 mph - N/A   Scattered Clouds
3:15 AM 67.6 °F 67.6 °F 100% 29.99 in 7.0 mi SW 3.5 mph - N/A   Mostly Cloudy
3:35 AM 68.9 °F 68.9 °F 100% 29.99 in 10.0 mi SW 4.6 mph - N/A   Overcast
3:55 AM 68.9 °F 68.9 °F 100% 29.99 in 10.0 mi SW 3.5 mph - N/A   Mostly Cloudy
4:15 AM 68.2 °F 68.2 °F 100% 29.99 in 7.0 mi Calm Calm - N/A   Scattered Clouds
4:35 AM 66.9 °F 66.9 °F 100% 29.99 in 5.0 mi Calm Calm - N/A   Scattered Clouds
4:55 AM 66.6 °F 66.6 °F 100% 29.99 in 5.0 mi SW 4.6 mph - N/A   Scattered Clouds
5:15 AM 67.3 °F 67.3 °F 100% 30.00 in 5.0 mi SW 3.5 mph - N/A   Clear
5:35 AM 66.7 °F 66.7 °F 100% 30.01 in 4.0 mi SW 3.5 mph - N/A   Clear
5:55 AM 66.2 °F 66.2 °F 100% 30.01 in 1.0 mi Calm Calm - N/A   Mist
6:15 AM 66.0 °F 66.0 °F 100% 30.01 in 1.2 mi West 4.6 mph - N/A   Scattered Clouds
6:35 AM 65.5 °F 65.5 °F 100% 30.02 in 1.2 mi West 3.5 mph - N/A   Mist
6:55 AM 66.4 °F 66.4 °F 100% 30.02 in 0.5 mi West 3.5 mph - N/A Fog Fog
7:15 AM 68.0 °F 68.0 °F 100% 30.03 in 3.0 mi NW 3.5 mph - N/A   Clear
7:35 AM 68.0 °F 68.0 °F 100% 30.03 in 3.0 mi NNW 3.5 mph - N/A   Clear
7:55 AM 69.1 °F 69.1 °F 100% 30.04 in 7.0 mi NNW 4.6 mph - N/A   Clear
8:15 AM 70.3 °F 68.9 °F 95% 30.04 in 10.0 mi North 6.9 mph - N/A   Clear
8:35 AM 71.4 °F 68.5 °F 91% 30.04 in 10.0 mi North 6.9 mph - N/A   Clear
8:55 AM 72.3 °F 69.1 °F 89% 30.05 in 10.0 mi North 8.1 mph - N/A   Clear
9:15 AM 72.5 °F 68.2 °F 86% 30.05 in 10.0 mi North 9.2 mph - N/A   Clear
9:35 AM 72.0 °F 67.8 °F 87% 30.06 in 10.0 mi North 6.9 mph 16.1 mph N/A   Clear
9:55 AM 74.1 °F 67.1 °F 79% 30.07 in 10.0 mi North 12.7 mph 16.1 mph N/A   Clear
10:15 AM 74.7 °F 67.1 °F 77% 30.08 in 10.0 mi North 15.0 mph 19.6 mph N/A   Clear
10:35 AM 76.1 °F 65.5 °F 70% 30.09 in 10.0 mi North 13.8 mph 20.7 mph N/A   Clear
10:55 AM 76.1 °F 62.8 °F 63% 30.09 in 10.0 mi North 11.5 mph 17.3 mph N/A   Clear
11:15 AM 75.6 °F 62.4 °F 64% 30.10 in 10.0 mi North 15.0 mph 19.6 mph N/A   Clear
11:35 AM 76.5 °F 59.7 °F 56% 30.10 in 10.0 mi North 11.5 mph 18.4 mph N/A   Clear
11:55 AM 77.2 °F 59.7 °F 55% 30.10 in 10.0 mi North 9.2 mph - N/A   Clear
12:15 PM 76.6 °F 58.1 °F 53% 30.10 in 10.0 mi NNE 12.7 mph 18.4 mph N/A   Clear
12:35 PM 77.2 °F 57.4 °F 50% 30.11 in 10.0 mi North 12.7 mph 18.4 mph N/A   Clear
12:55 PM 77.2 °F 59.0 °F 53% 30.10 in 10.0 mi NNW 12.7 mph 16.1 mph N/A   Clear
1:15 PM 77.0 °F 58.5 °F 53% 30.10 in 10.0 mi North 13.8 mph 19.6 mph N/A   Clear
1:35 PM 77.0 °F 57.4 °F 51% 30.09 in 10.0 mi North 15.0 mph 23.0 mph N/A   Clear
1:55 PM 77.2 °F 56.7 °F 49% 30.09 in 10.0 mi North 15.0 mph 20.7 mph N/A   Clear
2:15 PM 77.4 °F 53.2 °F 43% 30.08 in 10.0 mi NNW 15.0 mph 21.9 mph N/A   Clear
2:35 PM 77.4 °F 51.6 °F 41% 30.08 in 10.0 mi NNW 15.0 mph 23.0 mph N/A   Clear
2:55 PM 77.2 °F 52.9 °F 43% 30.08 in 10.0 mi North 10.4 mph - N/A   Clear
3:15 PM 77.7 °F 53.1 °F 42% 30.08 in 10.0 mi North 12.7 mph 20.7 mph N/A   Clear
3:35 PM 77.9 °F 51.6 °F 40% 30.08 in 10.0 mi North 12.7 mph 21.9 mph N/A   Clear
3:55 PM 78.1 °F 54.1 °F 43% 30.08 in 10.0 mi North 11.5 mph 17.3 mph N/A   Clear
4:15 PM 77.9 °F 53.6 °F 43% 30.08 in 10.0 mi North 13.8 mph 21.9 mph N/A   Clear
4:35 PM 77.9 °F 54.3 °F 44% 30.07 in 10.0 mi North 8.1 mph 11.5 mph N/A   Clear
4:55 PM 77.5 °F 53.4 °F 43% 30.08 in 10.0 mi NNW 13.8 mph 18.4 mph N/A   Clear
5:15 PM 77.4 °F 54.7 °F 45% 30.08 in 10.0 mi NNW 15.0 mph 18.4 mph N/A   Clear
5:35 PM 76.8 °F 53.1 °F 44% 30.08 in 10.0 mi North 10.4 mph 19.6 mph N/A   Clear
5:55 PM 76.5 °F 52.5 °F 43% 30.08 in 10.0 mi North 11.5 mph 17.3 mph N/A   Clear
6:15 PM 75.7 °F 55.6 °F 49% 30.08 in 10.0 mi NNE 12.7 mph 17.3 mph N/A   Clear
6:35 PM 74.7 °F 53.2 °F 47% 30.08 in 10.0 mi North 11.5 mph 18.4 mph N/A   Clear
6:55 PM 73.8 °F 52.7 °F 48% 30.09 in 10.0 mi North 11.5 mph 17.3 mph N/A   Clear
7:15 PM 72.7 °F 53.2 °F 50% 30.09 in 10.0 mi North 10.4 mph 16.1 mph N/A   Clear
7:35 PM 71.6 °F 52.9 °F 52% 30.10 in 10.0 mi North 9.2 mph - N/A   Clear
7:55 PM 70.2 °F 52.2 °F 53% 30.10 in 10.0 mi North 9.2 mph - N/A   Clear
8:15 PM 68.9 °F 52.2 °F 55% 30.10 in 10.0 mi North 8.1 mph - N/A   Clear
8:35 PM 67.1 °F 52.9 °F 60% 30.10 in 10.0 mi North 8.1 mph - N/A   Clear
8:55 PM 65.5 °F 53.2 °F 65% 30.10 in 10.0 mi North 5.8 mph - N/A   Clear
9:15 PM 63.7 °F 53.6 °F 70% 30.11 in 10.0 mi North 5.8 mph - N/A   Clear
9:35 PM 62.8 °F 53.6 °F 72% 30.11 in 10.0 mi NNW 4.6 mph - N/A   Clear
9:55 PM 62.6 °F 54.0 °F 73% 30.11 in 10.0 mi NNW 5.8 mph - N/A   Clear
10:15 PM 61.9 °F 53.4 °F 74% 30.12 in 10.0 mi NNW 5.8 mph - N/A   Clear
10:35 PM 61.3 °F 52.9 °F 74% 30.12 in 10.0 mi NNW 5.8 mph - N/A   Clear
10:55 PM 59.7 °F 53.4 °F 80% 30.12 in 10.0 mi NW 5.8 mph - N/A   Clear
11:15 PM 60.8 °F 53.2 °F 76% 30.12 in 10.0 mi NW 4.6 mph - N/A   Clear
11:35 PM 59.9 °F 53.1 °F 78% 30.11 in 10.0 mi NNW 5.8 mph - N/A   Clear
11:55 PM 58.1 °F 53.1 °F 83% 30.12 in 10.0 mi NW 4.6 mph - N/A   Clear